Location: Säffle
(59.1316°N, 12.9166°E)
Time: 20:59:31
(UTC+01:00)

ISS - Visible Passes

Search period start: 27 February 2021 00:00
Search period end: 09 March 2021 00:00
Orbit: 417 x 422 km, 51.6° (Epoch: 27 February)

Date Brightness Start Highest point End Pass type
(mag) Time Alt. Az. Time Alt. Az. Time Alt. Az.
27 Feb -1.4 04:52:06 14° S 04:53:01 15° SSE 04:54:59 10° ESE visible
27 Feb -1.8 06:26:21 10° SW 06:29:04 23° S 06:31:47 10° ESE visible
28 Feb -0.9 04:06:30 11° SE 04:06:30 11° SE 04:07:09 10° SE visible
28 Feb -1.8 05:39:28 12° SW 05:41:46 22° S 05:44:26 10° ESE visible
01 Mar -1.9 04:53:50 19° S 04:54:29 20° SSE 04:57:01 10° ESE visible
02 Mar -1.3 04:08:10 16° SE 04:08:10 16° SE 04:09:32 10° ESE visible
02 Mar -2.0 05:41:07 13° SW 05:43:18 23° S 05:46:02 10° SE visible
03 Mar -2.2 04:55:26 22° SSW 04:56:00 23° S 04:58:43 10° ESE visible
04 Mar -1.6 04:09:45 19° SE 04:09:45 19° SE 04:11:21 10° ESE visible
04 Mar -2.0 05:42:42 12° SW 05:44:49 21° SSW 05:47:24 10° SE visible
05 Mar -2.2 04:57:02 21° SSW 04:57:31 22° S 05:00:11 10° SE visible
06 Mar -1.7 04:11:22 19° SSE 04:11:22 19° SSE 04:12:55 10° SE visible
06 Mar -1.7 05:44:20 11° WSW 05:46:15 16° SSW 05:48:21 10° SSE visible
07 Mar -2.0 04:58:43 18° SSW 04:58:57 18° SSW 05:01:22 10° SSE visible
08 Mar -1.5 04:13:08 16° SSE 04:13:08 16° SSE 04:14:14 10° SE visible
08 Mar -1.3 05:47:15 10° SW 05:47:34 10° SSW 05:47:52 10° SSW visible
